Weather History for KPQN - March, 2013

Change the Weather History Date:

Tuesday, March 5, 2013

  Actual Average Record
Temperature  
Mean Temperature 22 °F -  
Max Temperature 26 °F 27 °F 55 °F (2005)
Min Temperature 17 °F 13 °F -14 °F (2015)
Degree Days  
Heating Degree Days 42    
Moisture  
Dew Point 19 °F    
Average Humidity 86    
Maximum Humidity 100    
Minimum Humidity 80    
Precipitation  
Precipitation 0.00 in - - ()
Sea Level Pressure  
Sea Level Pressure 30.11 in    
Wind  
Wind Speed 11 mph (NNW)    
Max Wind Speed 20 mph    
Max Gust Speed 31 mph    
Visibility 8 miles    
Events Snow    
Averages and records for this station are not official NWS values.
T = Trace of Precipitation, MM = Missing Value Source: NWS Daily Summary

Daily Weather History Graph

Daily Weather History Graph

Search for Another Location

Airport or City:

Trip Planner

Search our weather history database for the weather conditions in past years. The results will help you decide how hot, cold, wet, or windy it might be!

Date:

Astronomy

Mar. 05, 2013 Rise Set
Actual Time 6:54 AM CST 6:19 PM CST
Civil Twilight 6:25 AM CST 6:48 PM CST
Nautical Twilight 5:52 AM CST 7:21 PM CST
Astronomical Twilight 5:19 AM CST 7:55 PM CST
Moon 2:17 AM CST (3/5) 11:50 AM CST (3/5)
Length of Visible Light 12h 22m
Length of Day
11h 24m
Last Quarter, 40% of the Moon is Illuminated
Mar 5
Last Quarter
Mar 11
New
Mar 19
First Quarter
Mar 27
Full
Apr 2
Last Quarter

Hourly Weather History & Observations

Time (CST) Temp. Windchill Dew Point Humidity Pressure Visibility Wind Dir Wind Speed Gust Speed Precip Events Conditions
12:13 AM 24.8 °F 14.6 °F 21.2 °F 86% 29.90 in 10.0 mi WNW 10.4 mph - N/A   Overcast
12:34 AM 24.8 °F 13.4 °F 21.2 °F 86% 29.90 in 10.0 mi WNW 12.7 mph - N/A   Scattered Clouds
12:53 AM 24.8 °F 16.1 °F 21.2 °F 86% 29.90 in 10.0 mi West 8.1 mph - N/A   Mostly Cloudy
1:13 AM 24.8 °F 16.9 °F 21.2 °F 86% 29.90 in 10.0 mi West 6.9 mph - N/A Snow Light Snow
1:32 AM 24.8 °F 15.3 °F 21.2 °F 86% 29.90 in 10.0 mi West 9.2 mph - N/A Snow Light Snow
1:53 AM 24.8 °F 15.3 °F 21.2 °F 86% 29.90 in 10.0 mi West 9.2 mph - N/A   Overcast
2:33 AM 24.8 °F 16.9 °F 21.2 °F 86% 29.90 in 10.0 mi West 6.9 mph - N/A   Overcast
2:53 AM 24.8 °F 15.3 °F 21.2 °F 86% 29.90 in 10.0 mi West 9.2 mph - N/A   Overcast
3:13 AM 23.0 °F 14.7 °F 21.2 °F 93% 29.89 in 10.0 mi West 6.9 mph - N/A   Overcast
3:33 AM 23.0 °F 13.1 °F 21.2 °F 93% 29.89 in 10.0 mi West 9.2 mph - N/A   Overcast
3:54 AM 23.0 °F 13.1 °F 19.4 °F 86% 29.88 in 10.0 mi West 9.2 mph - N/A   Overcast
4:13 AM 23.0 °F 15.8 °F 19.4 °F 86% 29.89 in 10.0 mi WNW 5.8 mph - N/A   Overcast
4:53 AM 23.0 °F 15.8 °F 19.4 °F 86% 29.90 in 10.0 mi WNW 5.8 mph - N/A Snow Light Snow
5:14 AM 23.0 °F 15.8 °F 19.4 °F 86% 29.91 in 10.0 mi NW 5.8 mph - N/A Snow Light Snow
5:33 AM 23.0 °F 15.8 °F 19.4 °F 86% 29.92 in 10.0 mi NW 5.8 mph - N/A   Overcast
5:53 AM 23.0 °F 14.7 °F 21.2 °F 93% 29.92 in 10.0 mi NW 6.9 mph - N/A   Overcast
6:14 AM 21.2 °F 13.6 °F 21.2 °F 100% 29.93 in 10.0 mi NW 5.8 mph - N/A   Overcast
6:53 AM 23.0 °F 13.1 °F 21.2 °F 93% 29.95 in 10.0 mi NNW 9.2 mph - N/A   Overcast
7:14 AM 23.0 °F 13.9 °F 21.2 °F 93% 29.96 in 4.0 mi NNW 8.1 mph - N/A Snow Light Snow
7:33 AM 23.0 °F 17.0 °F 21.2 °F 93% 29.96 in 3.0 mi North 4.6 mph - N/A Snow Light Snow
7:53 AM 24.8 °F 15.3 °F 21.2 °F 86% 29.98 in 10.0 mi NNW 9.2 mph - N/A   Overcast
8:14 AM 24.8 °F 12.4 °F 21.2 °F 86% 30.00 in 2.5 mi NNW 15.0 mph 20.7 mph N/A Snow Light Snow
8:33 AM 23.0 °F 9.2 °F 19.4 °F 86% 30.02 in 2.0 mi North 17.3 mph 24.2 mph N/A Snow Light Snow
8:53 AM 23.0 °F 10.6 °F 19.4 °F 86% 30.03 in 2.5 mi North 13.8 mph 26.5 mph N/A Snow Light Snow
9:14 AM 23.0 °F 10.1 °F 19.4 °F 86% 30.04 in 2.5 mi North 15.0 mph 27.6 mph N/A Snow Light Snow
9:33 AM 23.0 °F 10.1 °F 19.4 °F 86% 30.04 in 3.0 mi North 15.0 mph 24.2 mph N/A   Overcast
9:53 AM 23.0 °F 10.1 °F 19.4 °F 86% 30.06 in 3.0 mi North 15.0 mph 24.2 mph N/A   Overcast
10:12 AM 23.0 °F 9.6 °F 19.4 °F 86% 30.07 in 5.0 mi North 16.1 mph 28.8 mph N/A Snow Light Snow
10:33 AM 24.8 °F 11.5 °F 19.4 °F 80% 30.08 in 4.0 mi North 17.3 mph 28.8 mph N/A   Overcast
10:53 AM 24.8 °F 12.4 °F 19.4 °F 80% 30.08 in 7.0 mi North 15.0 mph 25.3 mph N/A   Overcast
11:13 AM 24.8 °F 12.9 °F 19.4 °F 80% 30.09 in 7.0 mi North 13.8 mph 29.9 mph N/A   Overcast
11:33 AM 24.8 °F 10.7 °F 21.2 °F 86% 30.09 in 7.0 mi North 19.6 mph 26.5 mph N/A   Overcast
11:53 AM 24.8 °F 12.9 °F 21.2 °F 86% 30.10 in 7.0 mi North 13.8 mph 26.5 mph N/A   Overcast
12:13 PM 24.8 °F 12.4 °F 21.2 °F 86% 30.12 in 10.0 mi North 15.0 mph 31.1 mph N/A Snow Light Snow
12:33 PM 24.8 °F 11.5 °F 19.4 °F 80% 30.12 in 7.0 mi North 17.3 mph 28.8 mph N/A   Overcast
12:53 PM 26.6 °F 13.4 °F 21.2 °F 80% 30.13 in 10.0 mi North 18.4 mph 29.9 mph N/A   Overcast
1:13 PM 24.8 °F 11.9 °F 19.4 °F 80% 30.14 in 7.0 mi North 16.1 mph 25.3 mph N/A   Overcast
1:33 PM 24.8 °F 12.4 °F 19.4 °F 80% 30.14 in 10.0 mi North 15.0 mph 31.1 mph N/A   Overcast
1:53 PM 24.8 °F 11.5 °F 19.4 °F 80% 30.15 in 7.0 mi North 17.3 mph 28.8 mph N/A   Overcast
2:13 PM 24.8 °F 11.9 °F 19.4 °F 80% 30.16 in 10.0 mi North 16.1 mph 24.2 mph N/A   Overcast
2:33 PM 24.8 °F 12.4 °F 19.4 °F 80% 30.16 in 7.0 mi North 15.0 mph 24.2 mph N/A Snow Light Snow
2:53 PM 24.8 °F 13.4 °F 19.4 °F 80% 30.17 in 7.0 mi North 12.7 mph 31.1 mph N/A Snow Light Snow
3:13 PM 24.8 °F 13.4 °F 19.4 °F 80% 30.17 in 10.0 mi North 12.7 mph 20.7 mph N/A   Overcast
3:33 PM 24.8 °F 12.9 °F 19.4 °F 80% 30.18 in 4.0 mi North 13.8 mph 24.2 mph N/A   Haze
3:53 PM 23.0 °F 10.6 °F 17.6 °F 80% 30.19 in 10.0 mi North 13.8 mph 24.2 mph N/A   Overcast
4:13 PM 23.0 °F 11.7 °F 19.4 °F 86% 30.20 in 7.0 mi North 11.5 mph 17.3 mph N/A   Overcast
4:33 PM 23.0 °F 11.7 °F 19.4 °F 86% 30.22 in 3.0 mi North 11.5 mph 26.5 mph N/A Snow Light Snow
4:53 PM 23.0 °F 8.7 °F 17.6 °F 80% 30.23 in 7.0 mi North 18.4 mph 28.8 mph N/A   Overcast
5:13 PM 21.2 °F 8.3 °F 17.6 °F 86% 30.23 in 5.0 mi North 13.8 mph 23.0 mph N/A   Overcast
5:33 PM 21.2 °F 6.0 °F 17.6 °F 86% 30.24 in 4.0 mi North 19.6 mph 27.6 mph N/A Snow Light Snow
5:53 PM 21.2 °F 7.8 °F 17.6 °F 86% 30.25 in 2.5 mi North 15.0 mph 26.5 mph N/A   Overcast
6:13 PM 21.2 °F 8.3 °F 17.6 °F 86% 30.25 in 3.0 mi North 13.8 mph 27.6 mph N/A Snow Light Snow
6:33 PM 21.2 °F 7.8 °F 17.6 °F 86% 30.26 in 10.0 mi North 15.0 mph 20.7 mph N/A   Overcast
6:54 PM 21.2 °F 8.9 °F 17.6 °F 86% 30.26 in 10.0 mi North 12.7 mph 19.6 mph N/A   Overcast
7:13 PM 21.2 °F 7.8 °F 17.6 °F 86% 30.27 in 10.0 mi North 15.0 mph 25.3 mph N/A   Overcast
7:33 PM 21.2 °F 8.9 °F 17.6 °F 86% 30.28 in 10.0 mi North 12.7 mph 20.7 mph N/A   Overcast
7:54 PM 21.2 °F 6.8 °F 17.6 °F 86% 30.29 in 10.0 mi North 17.3 mph 23.0 mph N/A   Overcast
8:13 PM 21.2 °F 8.9 °F 17.6 °F 86% 30.28 in 10.0 mi North 12.7 mph 21.9 mph N/A   Overcast
8:33 PM 21.2 °F 8.9 °F 17.6 °F 86% 30.28 in 10.0 mi North 12.7 mph 20.7 mph N/A   Overcast
8:53 PM 21.2 °F 8.3 °F 17.6 °F 86% 30.28 in 10.0 mi North 13.8 mph 21.9 mph N/A   Overcast
9:13 PM 21.2 °F 9.5 °F 17.6 °F 86% 30.29 in 10.0 mi North 11.5 mph 17.3 mph N/A   Overcast
9:32 PM 19.4 °F 7.2 °F 17.6 °F 93% 30.29 in 10.0 mi North 11.5 mph 17.3 mph N/A   Overcast
9:53 PM 19.4 °F 8.6 °F 17.6 °F 93% 30.30 in 10.0 mi North 9.2 mph 16.1 mph N/A   Overcast
10:13 PM 19.4 °F 7.9 °F 17.6 °F 93% 30.31 in 10.0 mi North 10.4 mph 17.3 mph N/A   Overcast
10:33 PM 19.4 °F 8.6 °F 15.8 °F 86% 30.31 in 10.0 mi North 9.2 mph - N/A   Overcast
10:53 PM 19.4 °F 9.5 °F 15.8 °F 86% 30.31 in 10.0 mi North 8.1 mph 16.1 mph N/A   Overcast
11:13 PM 19.4 °F 7.2 °F 15.8 °F 86% 30.31 in 10.0 mi North 11.5 mph - N/A   Overcast
11:33 PM 19.4 °F 7.9 °F 15.8 °F 86% 30.32 in 10.0 mi North 10.4 mph - N/A   Overcast
11:53 PM 17.6 °F 7.3 °F 15.8 °F 93% 30.33 in 10.0 mi North 8.1 mph - N/A   Overcast